User: anonymous
Location: Balls_Creek
(35.6670°N, 81.1170°W)
Time: 13:28:06
(UTC-04:00)
Language:

Iridium 42 - Orbit

View from above orbital plane
View from above orbital plane
View from above satellite
View from above satellite

Ground track
Ground track

The orbit data is extracted from the following two-line orbital elements,

1 25077U 97077A   14109.46036462  .00000389  00000-0  13177-3 0  7650
2 25077 086.3963 144.6663 0002397 106.5323 253.6136 14.34217356856662
Epoch (UTC): 19 April 2014 11:02:55
Eccentricity: 0.0002397
inclination: 86.3963°
perigee height: 776 km
apogee height: 779 km
right ascension of ascending node: 144.6663°
argument of perigee: 106.5323°
revolutions per day: 14.34217356
mean anomaly at epoch: 253.6136°
orbit number at epoch: 85666

The dashed part of the orbit path shows where the satellite is in the earth's shadow,  

DLR